[[{"header":{"parameterUnit":"m.s-1","parameterCategory":1,"la1":30.2991,"la2":30.254,"lo1":-89.0895,"lo2":-89.0444,"dy":0.0017,"dx":0.0017,"nx":28,"ny":28,"refTime":"2024-10-13T09:00:00:Z","depth":0,"parameterNumber":2,"parameterNumberName":"U-component_of_WINDS"},"data":[0,0,0,0,0,0,0,0,0,0,0,0,0,0,0,0,0,0,0,0,0,0,0,0,0,0,0,0,0,0,0,0,0,0,0,0,0,0,0,0,0,0,0,0,0,0,0,0,0,0,0,0,0,0,0,0,0,0,1.6888,1.6889,0,1.6925,1.6925,1.6926,1.6867,1.6864,1.6862,1.6861,1.6898,1.6901,1.6904,0,0,0,0,0,0,0,0,0,0,0,0,0,1.6766,1.6769,1.6888,1.6889,1.6889,1.6925,1.6925,1.6926,1.6867,1.6864,1.6862,1.686,1.6897,1.69,1.6904,0,0,0,0,0,0,0,0,0,0,0,0,0,1.6813,1.677,1.6888,1.6864,1.6862,1.6925,1.6925,1.6926,1.6867,1.6864,1.6861,1.6858,1.6896,1.69,1.6904,1.6992,0,0,1.6918,1.6919,0,0,0,0,0,0,0,0,1.681,1.6817,1.6867,1.6866,1.6864,1.6888,1.6896,1.6948,1.6868,1.6865,1.686,1.6857,1.6897,1.6901,1.6915,1.6994,1.6995,1.6918,1.6921,1.6922,1.6924,0,0,0,0,0,0,0,1.6807,1.6815,1.6903,1.6868,1.6866,1.6851,1.6854,1.6905,1.6898,1.6865,1.6861,1.6866,1.6896,1.6911,1.6915,1.6996,1.6918,1.6922,1.6924,1.6926,1.7146,1.7149,0,0,0,0,0,0,1.6807,1.6813,1.6902,1.6904,1.6829,1.6856,1.6859,1.6883,1.6897,1.6896,1.6869,1.6864,1.6905,1.691,1.6916,1.7017,1.6922,1.6926,1.6929,1.7143,1.7147,1.715,0,0,0,0,0,0,1.6804,1.6815,1.69,1.6857,1.6867,1.6861,1.6889,1.6886,1.6901,1.69,1.6898,1.6886,1.6903,1.691,1.6973,1.7018,1.6928,1.6932,1.7139,1.7144,1.7148,1.7222,0,0,0,0,0,0,1.6801,1.6815,1.6848,1.6858,1.6869,1.6957,1.6891,1.6889,1.6908,1.6901,1.6915,1.6914,1.6901,1.6967,1.6977,1.7022,1.6936,1.7135,1.7141,1.7147,1.7216,1.7229,1.7241,0,0,0,0,0,1.6797,1.6868,1.685,1.6861,1.6911,1.696,1.6966,1.6949,1.6912,1.6945,1.6945,1.6914,1.7012,1.6974,1.6985,1.7032,1.7132,1.7139,1.7146,1.721,1.7227,1.724,0,0,0,0,0,0,1.6864,1.6869,1.6849,1.6926,1.6943,1.695,1.6991,1.6967,1.6994,1.6987,1.6964,1.6968,1.7035,1.704,1.6997,1.7116,1.7066,1.7076,1.711,1.7126,1.7138,1.7134,1.6939,0,0,0,0,0,1.6888,1.6927,1.6929,1.6997,1.7006,1.6997,1.7018,1.7003,1.7019,1.7026,1.703,1.7047,1.7081,1.7104,1.7136,1.7217,1.7218,1.7255,1.7267,1.7277,1.7286,1.7326,1.7342,1.7174,1.7174,1.7174,0,0,1.6937,1.6945,1.6971,1.701,1.7021,1.7061,1.7004,1.7049,1.7078,1.7033,1.7092,1.7095,1.7112,1.7184,1.7216,1.7191,1.7332,1.7287,1.7295,1.7297,1.7336,1.7351,1.7366,1.7179,1.7178,1.7177,0,0,1.7047,1.7058,1.7114,1.7126,1.7143,1.7137,1.7151,1.7161,1.7161,1.722,1.7186,1.722,1.7281,1.7293,1.7308,1.7421,1.7393,1.7433,1.7496,1.7537,1.755,1.7561,1.76,1.7614,1.7441,1.7441,1.7441,0,1.7106,1.7165,1.7146,1.7193,1.7211,1.7171,1.7227,1.724,1.7267,1.728,1.7251,1.7324,1.7333,1.7406,1.7434,1.7448,1.7461,1.743,1.755,1.7561,1.7572,1.7608,1.7622,1.7446,1.7445,1.7445,1.7444,0,1.7236,1.7278,1.7321,1.7347,1.737,1.7421,1.7409,1.7434,1.7417,1.7413,1.7473,1.7482,1.7514,1.7531,1.7515,1.7601,1.7584,1.7553,1.7501,1.7592,1.7626,1.764,1.7452,1.7451,1.7449,1.7448,0,0,1.7389,1.7403,1.7419,1.7429,1.7445,1.7476,1.7526,1.7556,1.7577,1.7598,1.7637,1.7688,1.7659,1.7675,1.7661,1.7696,1.7783,1.766,1.766,1.7681,1.7875,1.7897,1.7914,1.7765,1.7768,1.777,1.7873,0,1.7497,1.7581,1.7564,1.7646,1.7683,1.7646,1.7688,1.7702,1.77,1.7731,1.7728,1.7764,1.7724,1.7733,1.7767,1.7765,1.7821,1.7758,1.78,1.7802,1.7794,1.7932,1.7955,1.8052,1.7886,1.7889,1.789,0,1.7633,1.7657,1.7743,1.7751,1.7766,1.7804,1.783,1.786,1.7875,1.787,1.7888,1.7866,1.7914,1.7863,1.7927,1.7884,1.7901,1.7903,1.7906,1.7907,1.785,1.7935,1.8083,1.8097,1.7911,1.7909,1.7908,0,1.7733,1.7787,1.7845,1.7855,1.7867,1.7894,1.79,1.7912,1.793,1.7953,1.7965,1.7993,1.8008,1.803,1.8016,1.7981,1.8082,1.803,1.8078,1.8079,1.81,1.8099,1.8251,1.8115,1.8114,1.8114,1.8114,0,1.7854,1.7907,1.7889,1.7925,1.7983,1.7963,1.8021,1.8023,1.8033,1.8067,1.8037,1.807,1.805,1.8081,1.8071,1.8124,1.8132,1.8129,1.8125,1.813,1.813,1.8139,1.8131,1.8118,1.8117,1.8116,1.8116,0,1.7975,1.7966,1.8025,1.8031,1.8033,1.8076,1.808,1.8112,1.8108,1.8151,1.816,1.8153,1.8187,1.8176,1.8214,1.8206,1.8273,1.8262,1.8268,1.8265,1.8313,1.8307,1.8474,1.8494,1.8347,1.8349,1.835,0,1.8052,1.8092,1.8101,1.8121,1.8129,1.8163,1.8182,1.8164,1.8184,1.8203,1.8233,1.8265,1.8289,1.8346,1.8343,1.8371,1.8359,1.8416,1.8363,1.8366,1.8357,1.8354,1.8357,1.8425,1.8427,1.8429,1.843,0,1.8188,1.8181,1.8209,1.8235,1.8258,1.8278,1.8295,1.8314,1.8297,1.8321,1.8356,1.8375,1.8412,1.8443,1.8468,1.8474,1.8449,1.8447,1.8459,1.8463,1.8464,1.8462,1.8295,1.8442,1.8441,1.844,1.8439,1.8439,1.8287,1.832,1.8331,1.8363,1.8374,1.839,1.842,1.8419,1.8447,1.8476,1.8464,1.8503,1.8515,1.8546,1.8555,1.8585,1.8563,1.8581,1.8585,1.8589,1.8594,1.8461,1.8589,1.8589,1.8589,1.8588,1.8588,0,1.842,1.8425,1.8454,1.8478,1.8503,1.8478,1.8495,1.8517,1.8552,1.8565,1.8589,1.8628,1.8658,1.8658,1.8685,1.8709,1.8698,1.8717,1.8714,1.8715,1.8614,1.8599,1.8725,1.8725,1.8725,1.8725,1.8725,1.8725,1.8491,1.8544,1.8539,1.8596,1.8601,1.8639,1.865,1.8665,1.8675,1.872,1.8744,1.8744,1.8751,1.8779,1.8804,1.8803,1.8814,1.8837,1.8831,1.8736,1.8722,1.8709,1.8695,1.884,1.884,1.8929,1.893,1.8931]},{"header":{"parameterUnit":"m.s-1","parameterCategory":1,"la1":30.2991,"la2":30.254,"lo1":-89.0895,"lo2":-89.0444,"dy":0.0017,"dx":0.0017,"nx":28,"ny":28,"refTime":"2024-10-13T09:00:00:Z","depth":0,"parameterNumber":3,"parameterNumberName":"V-component_of_WINDS"},"data":[0,0,0,0,0,0,0,0,0,0,0,0,0,0,0,0,0,0,0,0,0,0,0,0,0,0,0,0,0,0,0,0,0,0,0,0,0,0,0,0,0,0,0,0,0,0,0,0,0,0,0,0,0,0,0,0,0,0,-0.3957,-0.3957,0,-0.396,-0.396,-0.396,-0.3998,-0.3999,-0.4,-0.4001,-0.4002,-0.4001,-0.4,0,0,0,0,0,0,0,0,0,0,0,0,0,-0.3981,-0.398,-0.3957,-0.3957,-0.3957,-0.396,-0.396,-0.396,-0.3998,-0.3999,-0.4,-0.4001,-0.4002,-0.4001,-0.4,0,0,0,0,0,0,0,0,0,0,0,0,0,-0.3976,-0.398,-0.3957,-0.3976,-0.3978,-0.396,-0.396,-0.396,-0.3997,-0.3999,-0.4,-0.4002,-0.4002,-0.4001,-0.4,-0.3964,0,0,-0.3996,-0.3996,0,0,0,0,0,0,0,0,-0.3976,-0.3975,-0.3973,-0.3975,-0.3976,-0.398,-0.3969,-0.3961,-0.3997,-0.399,-0.4001,-0.4002,-0.3993,-0.3993,-0.399,-0.3964,-0.3964,-0.3996,-0.3995,-0.3995,-0.3994,0,0,0,0,0,0,0,-0.3977,-0.3975,-0.3958,-0.3973,-0.3975,-0.3984,-0.3985,-0.3968,-0.3983,-0.3991,-0.3993,-0.3993,-0.3995,-0.3991,-0.3991,-0.3964,-0.3996,-0.3995,-0.3994,-0.3994,-0.3908,-0.3907,0,0,0,0,0,0,-0.3974,-0.3975,-0.3958,-0.3958,-0.398,-0.3982,-0.3983,-0.3977,-0.3984,-0.3986,-0.3992,-0.3995,-0.3993,-0.3992,-0.3991,-0.3949,-0.3995,-0.3994,-0.3993,-0.391,-0.3908,-0.3907,0,0,0,0,0,0,-0.3975,-0.3973,-0.3958,-0.3967,-0.3966,-0.398,-0.3973,-0.3977,-0.3974,-0.3985,-0.3988,-0.3986,-0.3994,-0.3993,-0.3971,-0.395,-0.3993,-0.3992,-0.3912,-0.3909,-0.3907,-0.3865,0,0,0,0,0,0,-0.3975,-0.3972,-0.3959,-0.3967,-0.3966,-0.3938,-0.3972,-0.3976,-0.3972,-0.3976,-0.398,-0.3982,-0.3995,-0.3972,-0.3969,-0.3949,-0.3991,-0.3914,-0.3911,-0.3908,-0.3868,-0.3862,-0.3856,0,0,0,0,0,-0.3976,-0.3946,-0.3958,-0.3956,-0.3949,-0.3936,-0.3935,-0.3951,-0.397,-0.3956,-0.3964,-0.3982,-0.3953,-0.397,-0.3967,-0.3945,-0.3915,-0.3912,-0.3908,-0.3871,-0.3863,-0.3856,0,0,0,0,0,0,-0.3934,-0.3948,-0.3961,-0.3933,-0.3933,-0.3943,-0.3926,-0.3942,-0.3937,-0.394,-0.396,-0.3961,-0.3935,-0.3938,-0.3957,-0.3911,-0.3937,-0.3933,-0.391,-0.3902,-0.3896,-0.3896,-0.399,0,0,0,0,0,-0.3922,-0.3911,-0.3923,-0.3897,-0.3897,-0.3911,-0.3906,-0.3919,-0.392,-0.392,-0.3926,-0.3925,-0.3916,-0.3909,-0.3901,-0.3869,-0.3871,-0.3853,-0.3847,-0.3842,-0.3838,-0.3822,-0.3814,-0.3895,-0.3895,-0.3896,0,0,-0.3896,-0.3902,-0.3894,-0.3889,-0.3891,-0.3879,-0.3911,-0.3897,-0.3888,-0.3917,-0.3897,-0.3901,-0.3902,-0.3875,-0.3864,-0.3877,-0.3816,-0.3838,-0.3833,-0.3832,-0.3818,-0.381,-0.3803,-0.3893,-0.3894,-0.3894,0,0,-0.3843,-0.3846,-0.3826,-0.3827,-0.383,-0.384,-0.3835,-0.3842,-0.3847,-0.3827,-0.3849,-0.3838,-0.3822,-0.3822,-0.382,-0.3768,-0.3785,-0.3765,-0.3732,-0.3716,-0.371,-0.3704,-0.3686,-0.3679,-0.3761,-0.3761,-0.3761,0,-0.381,-0.3794,-0.3813,-0.3797,-0.3794,-0.3822,-0.3801,-0.3801,-0.3801,-0.3798,-0.3813,-0.3794,-0.3797,-0.377,-0.3758,-0.3755,-0.375,-0.3764,-0.3709,-0.3704,-0.3699,-0.3682,-0.3675,-0.3759,-0.3759,-0.3759,-0.3759,0,-0.3753,-0.3741,-0.3724,-0.3724,-0.372,-0.3701,-0.3717,-0.371,-0.3724,-0.3732,-0.3712,-0.3716,-0.371,-0.3705,-0.3717,-0.368,-0.3688,-0.3706,-0.3732,-0.3688,-0.3673,-0.3666,-0.3755,-0.3756,-0.3757,-0.3757,0,0,-0.3673,-0.3685,-0.3678,-0.3679,-0.3685,-0.3676,-0.3659,-0.3654,-0.3647,-0.3646,-0.3633,-0.3619,-0.3636,-0.3633,-0.3646,-0.3632,-0.3591,-0.3652,-0.3652,-0.364,-0.3551,-0.3538,-0.353,-0.3603,-0.3602,-0.3601,-0.3551,0,-0.3621,-0.3594,-0.3611,-0.3581,-0.357,-0.3597,-0.3582,-0.3584,-0.3592,-0.3583,-0.3592,-0.3582,-0.3605,-0.3604,-0.3591,-0.3599,-0.3573,-0.3603,-0.359,-0.3589,-0.3588,-0.3522,-0.3507,-0.346,-0.3545,-0.3544,-0.3543,0,-0.3558,-0.3555,-0.3524,-0.3533,-0.3529,-0.3516,-0.3513,-0.3505,-0.3508,-0.3514,-0.3512,-0.3529,-0.3513,-0.3539,-0.3518,-0.3537,-0.3533,-0.3536,-0.3535,-0.3534,-0.3563,-0.3519,-0.3446,-0.3439,-0.3534,-0.3535,-0.3535,0,-0.3502,-0.3491,-0.3471,-0.3471,-0.3481,-0.3471,-0.3475,-0.3479,-0.3475,-0.3472,-0.347,-0.3465,-0.3463,-0.3459,-0.3473,-0.3491,-0.345,-0.3477,-0.3455,-0.3454,-0.3444,-0.3444,-0.3369,-0.3442,-0.3442,-0.3442,-0.3442,0,-0.3443,-0.3423,-0.3447,-0.3434,-0.3413,-0.3433,-0.3411,-0.3417,-0.3421,-0.341,-0.3433,-0.3422,-0.3443,-0.3434,-0.3445,-0.3426,-0.3424,-0.3429,-0.3432,-0.3427,-0.3426,-0.3424,-0.3428,-0.344,-0.344,-0.3441,-0.3441,0,-0.3377,-0.3392,-0.3372,-0.3384,-0.3386,-0.337,-0.338,-0.3369,-0.3378,-0.3365,-0.3363,-0.3377,-0.3369,-0.3383,-0.3376,-0.3384,-0.3357,-0.3365,-0.3356,-0.3358,-0.3334,-0.3336,-0.3255,-0.3246,-0.3324,-0.3323,-0.3323,0,-0.3338,-0.3323,-0.3334,-0.3329,-0.3331,-0.3323,-0.3319,-0.3339,-0.3334,-0.3337,-0.3326,-0.3319,-0.3315,-0.3299,-0.3309,-0.3304,-0.3312,-0.3284,-0.3311,-0.3307,-0.3312,-0.3313,-0.3311,-0.3278,-0.3277,-0.3276,-0.3276,0,-0.3267,-0.3276,-0.3271,-0.3268,-0.3264,-0.3263,-0.3263,-0.3257,-0.3278,-0.3272,-0.3264,-0.326,-0.3254,-0.3247,-0.3244,-0.3247,-0.3265,-0.3267,-0.3262,-0.3256,-0.3252,-0.3254,-0.334,-0.3269,-0.327,-0.327,-0.3271,-0.3271,-0.3214,-0.3203,-0.3208,-0.3202,-0.3205,-0.3205,-0.3195,-0.3205,-0.3198,-0.3195,-0.3207,-0.3196,-0.32,-0.3198,-0.32,-0.3192,-0.3204,-0.3196,-0.3194,-0.3191,-0.3188,-0.3253,-0.3191,-0.3191,-0.3192,-0.3192,-0.3192,0,-0.3145,-0.315,-0.3144,-0.3145,-0.314,-0.3158,-0.3159,-0.3154,-0.3144,-0.3147,-0.3143,-0.3134,-0.3127,-0.3137,-0.3133,-0.3124,-0.3132,-0.3122,-0.3123,-0.3124,-0.3177,-0.3182,-0.3116,-0.3116,-0.3116,-0.3116,-0.3116,-0.3116,-0.3108,-0.309,-0.3099,-0.3083,-0.3089,-0.3079,-0.3078,-0.3079,-0.3081,-0.307,-0.3066,-0.3073,-0.3078,-0.3074,-0.307,-0.3073,-0.307,-0.3057,-0.3063,-0.3112,-0.312,-0.3127,-0.3132,-0.3056,-0.3056,-0.3011,-0.301,-0.301]}]]